sat.trackr.live / text

‹ back to catalog

KANOPUS-V 6

NORAD 43877 · 2018-111B

PAYLOAD ACTIVE UNKNOWN

§ Identity

Operator
Country
CIS
Launch date
2018-12-27
Launch site
VOSTO
Launch vehicle
Mass (kg)
RCS (m²)

External: N2YO · Heavens-Above · Gunter

§ Orbital elements

Epoch: 2026-05-25T05:20:06.961920Z

Period
93.45 min
Inclination
97.3717°
Eccentricity
0.0002542
Mean motion
15.40934944 rev/d
Perigee alt
441.6 km
Apogee alt
445.1 km
Semi-major
6,821.5 km
B*
3.9804e-4
RAAN
62.0556°
Arg perigee
78.7166°
Mean anomaly
281.4366°
Rev number
41,198

§ Raw data

KANOPUS-V 61 43877U 18111B   26145.22230280  .00016308  00000+0  39804-3 0  99922 43877  97.3717  62.0556 0002542  78.7166 281.4366 15.40934944411983

JSON: /api/v1/satellites/43877 · /tle

For live sub-satellite position, see the globe view (requires WebGL).

§ Visibility from observer

Set your observer location to see the next 7 days of passes ≥ 10°. The values pass through the URL so the page stays shareable.

No JS? Fill the form by hand. The geolocation button needs JavaScript.